Location: Boiro
(42.6475°N, 8.8834°W)
Time: 01:46:48
(UTC+01:00)

Transit 2A Rocket - Pass Details

Date: 03 December 2021
Orbit: 584 x 917 km, 66.7° (Epoch: 23 January)

Event Time Altitude Azimuth Distance (km) Brightness Sun altitude
Rises 11:27:45 0° 268° (W) 3,403 8.1 19.7°
Reaches altitude 10° 11:31:15 10° 290° (WNW) 2,526 7.3 20.1°
Maximum altitude 11:34:43 16° 326° (NNW) 2,182 6.9 20.3°
Drops below altitude 10° 11:38:17 10° 2° (N) 2,603 7.3 20.6°
Sets 11:42:00 0° 24° (NNE) 3,563 8.1 20.9°
